www.pogodaiklimat.ru
ПОГОДА в МакАлестере
Время
и дата
05:53 05.02
06:53 05.02
07:53 05.02
08:00 05.02
08:07 05.02
08:17 05.02
08:19 05.02
08:53 05.02
09:53 05.02
10:53 05.02
11:53 05.02
12:53 05.02
13:53 05.02
14:53 05.02
15:53 05.02
16:53 05.02
17:53 05.02
18:53 05.02
19:53 05.02
20:53 05.02
21:53 05.02
22:53 05.02
23:53 05.02
00:53 06.02
01:53 06.02
02:53 06.02
03:53 06.02
04:53 06.02
05:53 06.02
06:53 06.02
07:53 06.02
08:53 06.02
09:53 06.02
10:02 06.02
10:53 06.02
11:53 06.02
12:14 06.02
12:53 06.02
13:38 06.02
13:53 06.02
14:53 06.02
15:53 06.02
16:05 06.02
16:12 06.02
16:53 06.02
17:53 06.02
18:53 06.02
19:53 06.02
Ветер
(напр.,м/с)
Видим. Явления Облачность Т
(С)
Тd
(С)
f
(%)
Тe
(С)
Тes
(С)
Комфортность P
(гПа)
Po
(гПа)
Тmin
(С)
Tmax
(С)
R
(мм)
R24
(мм)
S
(см)
штиль 0 16 км 2/0 2250 m
[Ac]
+3.3 +2.2 92 +2 +2 1020.8 992.5 +3.3 +9.4
штиль 0 14 км 2/0 2400 m
[Ac]
+1.1 0.0 92 0 0 1021.7 993.5
штиль 0 5 км дымка ясно +1.1 0.0 92 0 0 1022.1 993.8
штиль 0 3 км дымка 2/0 2550 m
[Ac]
+1.1 +0.6 96 0 +1 993.8
штиль 0 1 км дымка 5/0 2100 m
[Ac]
+1.7 +1.1 96 0 +1 993.8
ЮЗ 2 2 км дымка 5/0 2700 m
[Ac]
+2.2 +1.1 92 -1 -1 993.8
ЮЗ 2 5 км дымка 2/0 2700 m
[Ac]
+2.2 +1.7 96 -1 -1 993.8
ЮЗ 2 16 км 2/0 3300 m
[Ac]
+6.7 +5.0 89 +4 +5 1021.9 993.8
ЮЗ 3 16 км 2/0 3000 m
[Ac]
+10.0 +6.1 77 +8 +10 1022.1 994.2
ЮЗ 2 16 км 2/0 3000 m
[Ac]
+11.7 +6.1 68 +11 +15 1022.0 994.2
нст 2 16 км 2/0 3000 m
[Ac]
+13.3 +6.7 64 +13 +19 1021.3 993.5 +0.6 +13.3
Ю 2 16 км 2/0 3300 m
[Ac]
+15.6 +6.7 55 +16 +23 1020.5 992.5
ЮЗ 2 16 км 5/0 3000 m
[Ac]
+17.2 +7.2 52 +18 +23 1019.6 991.9
нст 2 16 км 2/0 3000 m
[Ac]
+18.9 +7.2 47 +20 +26 1019.1 991.2
16 км 2/0 2550 m
[Ac]
+19.4 +6.7 44 +20 +25 1018.8 991.2
Ю 2 16 км ясно +19.4 +6.7 44 +21 +23 комфорт 1018.5 990.9
ЮВ 2 16 км 2/0 2250 m
[Ac]
+16.1 +6.7 54 +16 +17 1018.3 990.2 +13.3 +20.0
ЮВ 3 16 км ясно +15.0 +6.1 55 +14 +14 1018.2 990.2
ЮВ 2 16 км 5/0 2100 m
[Ac]
+13.9 +6.1 59 +14 +14 1018.5 990.6
Ю 2 16 км 2/0 2250 m
[Ac]
+10.6 +5.6 71 +9 +9 1018.8 990.9
ЮВ 2 16 км 5/0 2250 m
[Ac]
+12.8 +7.2 69 +12 +12 1018.4 990.6
ЮВ 3 16 км 5/2 1950 m
[Ac]
+11.7 +7.2 74 +10 +10 1018.0 990.2
ЮВ 2 16 км 2/0 3300 m
[Ac]
+11.1 +7.2 77 +10 +10 1017.7 989.9 +10.0 +16.1
ЮВ 3 16 км ясно +11.1 +7.8 80 +9 +9 1017.0 989.2
ЮВ 3 16 км ясно +11.7 +7.8 77 +10 +10 1016.4 988.9
Ю 3 16 км 2/0 3600 m
[Ac]
+11.7 +8.3 80 +10 +10 1016.0 988.6
Ю 4 16 км ясно +12.8 +9.4 80 +11 +11 1015.5 987.9
Ю 3 16 км 5/0 2100 m
[Ac]
+13.3 +9.4 77 +12 +12 1015.0 987.6
нст 2 16 км ясно +13.3 +10.0 80 +13 +13 1015.1 987.6 +10.0 +13.3
Ю 3
{7}
16 км ясно +13.3 +10.6 84 +12 +12 1015.0 987.6
Ю 3 16 км ясно +12.8 +10.6 86 +11 +11 1014.8 987.3
нст 3
{8}
16 км 8/8 360 м +14.4 +11.7 84 +13 +14 1014.5 986.9
Ю 4
{12}
16 км 10/10 300 м +13.9 +11.7 87 +12 +12 1015.1 987.6
Ю 5
{10}
16 км 10/10 240 м +13.3 +11.7 90 +11 +11 987.6
Ю 5
{11}
6 км дымка 10/10 210 м +13.3 +11.7 90 +11 +11 1015.2 987.6
Ю 5
{11}
16 км 10/10 270 м +13.9 +12.2 89 +12 +12 1013.9 986.3 +12.8 +14.4
Ю 5
{11}
16 км 10/10 300 м +15.0 +12.8 87 +14 +14 985.9
Ю 5
{13}
16 км 10/10 420 м +16.1 +12.8 81 +15 +15 1012.4 985.0
Ю 7
{15}
16 км 10/10 480 м +16.7 +12.8 78 +15 +15 983.6
Ю 5
{13}
16 км 10/10 540 м +17.2 +12.8 75 +17 +17 1010.9 983.6
Ю 7
{14}
16 км 10/10 690 м +18.3 +12.8 70 +18 +18 1009.9 982.6
Ю 8
{16}
16 км 10/10 780 м +18.3 +12.2 68 +18 +18 1010.1 982.6
Ю 7
{15}
16 км 8/8 870 м +18.9 +12.2 65 +19 +19 982.6
Ю 7
{12}
16 км 8/8 990 м +18.9 +12.2 65 +19 +19 982.6
Ю 5
{10}
16 км 8/8 1020 м +18.9 +12.8 68 +20 +20 1009.9 982.6
Ю 4 16 км 8/8 1200 м +18.3 +12.2 68 +18 +18 1010.6 983.3 +14.4 +19.4
Ю 5
{9}
16 км 10/10 1320 м +18.3 +12.2 68 +18 +18 1010.8 983.6
нст 3
{8}
16 км 8/8 1350 m
[Ac]
+17.8 +12.2 70 +18 +18 1011.2 983.6
Местоположение метеостанции McAlester Regional Airport: широта 34.8822 долгота -95.7831 высота над уровнем моря 234 м.
В архиве по умолчанию представлена погода в МакАлестере за последние 1-2 суток. Обновление информации о фактической погоде в базе происходит ежечасно! Архивные данные за месяц целиком и за предыдущие месяцы Вы можете получить, выбрав интересующий диапазон дат из раскрывающегося списка и нажав кнопку "Ввод!".
Внимание! Архив погоды МЕТАР в базе сайта по станциям, не включенным в климатический монитор, хранится не более 60 дней. Нет смысла пытаться выбрать более раннюю дату.
*Определитесь, кто Вы:
Внимание! Время в таблицах - местное (без учета летнего времени). Для получения всемирного времени необходимо вычесть поправку, которая равна -6 ч.
Смотрите также архив погоды в соседних городах и на ближайших метеорологических станциях:
Партнеры нашего сайта:      
Пояснения к столбцам:
  • Ветер - указаны скорость ветра в м/с - средняя за 10 мин, порывы в срок и между сроками (в фигурных скобках) и направление, откуда дует ветер: С - северный,
  • СВ - северо-восточный, В - восточный, ЮВ - юго-восточный, Ю - южный, ЮЗ - юго-западный, З - западный, СЗ - северо-западный.
  • Видимость - горизонтальная дальность видимости в метрах или километрах. При видимости от 1 до 10 км при отсутствии осадков обычно наблюдается дымка, при ухудшении видимости до 1 км и менее - туман. В сухую погоду видимость может ухудшаться дымом, пылью или мглою.
  • Явления - указаны атмосферные явления, наблюдавшиеся в срок или в последний час перед сроком; фигурными скобками обозначены явления, наблюдавшиеся между сроками (за 1-3 часа до срока); квадратными скобками обозначены град или гололедные отложения с указанием их диаметра в мм.
  • Облачность - указаны через наклонную черту общая и нижняя облачность в баллах и высота нижней границы облаков в метрах; квадратными скобками обозначены формы облаков: Ci - перистые, Cs - перисто-слоистые, Cc - перисто-кучевые, Ac - высококучевые, As - высокослоистые, Sc - слоисто-кучевые, Ns - слоисто-дождевые, Cu - кучевые, Cb - кучево-дождевые. Подробнее классификацию облаков см. в Атласе облаков (PDF).
  • T - Температура воздуха - температура, измеренная на высоте 2 м над землей.
  • Td - Температура точки росы - температура, при понижении до которой содержащийся в воздухе водяной пар достигнет насыщения.
  • f - Относительная влажность воздуха - влажноcть воздуха, измеренная на высоте 2 м над землей.
  • Te - Эффективная температура - температура, которую ощущает одетый по сезону человек в тени. Характеристика душности погоды. При расчете учитывается влияние влажности воздуха и скорости ветра на теплоощущения человека.
  • Tes - Эффективная температура на солнце - температура, которую ощущает человек, с поправкой на солнечный нагрев. Характеристика знойности погоды. Зависит от высоты солнца над горизонтом, облачности и скорости ветра. Ночью, в пасмурную погоду, а также при ветре 12 м/с и более поправка равна нулю.
  • P - Атмосферное давление - приведенное к уровню моря атмосферное давление.
  • Po - Атмосферное давление - измеренное на уровне метеостанции атмосферное давление.
  • Tmin - Минимальная температура - минимум температуры воздуха на высоте 2 м над землей.
  • Tmax - Максимальная температура - максимум температуры воздуха на высоте 2 м над землей.
  • R - Количество осадков - Количество выпавших осадков за период времени, мм. При наведении курсора мыши на число - период времени, за который выпало указанное количество осадков.
  • R24 - Количество осадков - Количество выпавших осадков за 24 часа, мм.
  • S - Снежный покров - Высота снежного покрова, см. При наведении курсора мыши на число - состояние снежного покрова и степень покрытия местности в баллах.